CW1020 Weather Reports


time (UTC)temp
F
wind
direction
speed
knots
gust
knots
rain 1hr
in
rain 24hr
in
rain mn
in
humidity
%
barometer
mb
20260504030003 55 291 8.7 12.2 0.00 0.00 0.00 66 1012.3
20260504025503 55 302 8.7 13.0 0.00 0.00 0.00 65 1012.0
20260504025004 56 299 8.7 12.2 0.00 0.00 0.00 65 1012.2
20260504023503 56 315 7.0 13.0 0.00 0.00 0.00 65 1012.0
20260504023004 56 286 7.0 10.4 0.00 0.00 0.00 64 1012.1
20260504022504 56 277 7.0 8.7 0.00 0.00 0.00 64 1012.2
20260504022003 56 302 7.0 13.9 0.00 0.00 0.00 64 1012.1
20260504021503 57 304 7.8 11.3 0.00 0.00 0.00 63 1011.9
20260504021003 57 306 7.8 10.4 0.00 0.00 0.00 63 1011.6
20260504020503 57 307 8.7 11.3 0.00 0.00 0.00 62 1011.4
20260504020004 58 305 9.6 11.3 0.00 0.00 0.00 62 1011.5
20260504015504 58 309 9.6 14.8 0.00 0.00 0.00 61 1011.7
20260504015004 58 308 8.7 12.2 0.00 0.00 0.00 61 1011.5
20260504014503 59 306 7.8 13.0 0.00 0.00 0.00 60 1011.6
20260504014003 59 309 7.8 10.4 0.00 0.00 0.00 59 1011.6
20260504013503 59 278 7.8 9.6 0.00 0.00 0.00 59 1011.6
20260504013003 60 283 7.8 13.0 0.00 0.00 0.00 59 1011.6
20260504012003 60 302 7.8 13.0 0.00 0.00 0.00 59 1011.6
20260504011504 60 314 7.8 15.6 0.00 0.00 0.00 58 1011.5
20260504011003 61 298 9.6 11.3 0.00 0.00 0.00 57 1011.6
20260504010503 61 280 8.7 12.2 0.00 0.00 0.00 57 1011.5
20260504010005 61 310 8.7 14.8 0.00 0.00 0.00 57 1011.6
20260504005504 61 298 8.7 10.4 0.00 0.00 0.00 57 1011.8
20260504005004 61 307 8.7 12.2 0.00 0.00 0.00 56 1011.7
20260504004503 61 304 8.7 13.0 0.00 0.00 0.00 57 1011.7
20260504004003 60 312 7.8 16.5 0.00 0.00 0.00 56 1011.6
20260504003503 61 316 8.7 12.2 0.00 0.00 0.00 56 1011.6
20260504003004 61 294 8.7 10.4 0.00 0.00 0.00 56 1011.5
20260504002003 62 291 7.8 13.9 0.00 0.00 0.00 56 1011.4
20260504001504 62 300 8.7 12.2 0.00 0.00 0.00 57 1011.4
20260504001003 61 309 9.6 13.9 0.00 0.00 0.00 57 1011.4
20260504000504 61 299 8.7 12.2 0.00 0.00 0.00 57 1011.3
20260504000003 62 299 9.6 12.2 0.00 0.00 0.00 56 1011.6
20260503235003 62 311 9.6 16.5 0.00 0.00 0.00 57 1011.7
20260503234503 61 320 8.7 13.9 0.00 0.00 0.00 57 1011.7
20260503234004 62 308 9.6 12.2 0.00 0.00 0.00 57 1011.7
20260503233503 62 308 10.4 13.9 0.00 0.00 0.00 57 1011.7
20260503233005 62 310 10.4 15.6 0.00 0.00 0.00 57 1011.7
20260503232503 62 301 11.3 16.5 0.00 0.00 0.00 56 1011.7
20260503232004 62 295 12.2 15.6 0.00 0.00 0.00 58 1011.7
20260503231504 62 318 11.3 16.5 0.00 0.00 0.00 58 1011.7
20260503231003 62 309 10.4 15.6 0.00 0.00 0.00 58 1011.6
20260503230504 62 306 10.4 14.8 0.00 0.00 0.00 58 1011.6
20260503230003 62 305 10.4 13.9 0.00 0.00 0.00 58 1011.8
20260503225504 62 311 10.4 13.9 0.00 0.00 0.00 56 1011.9
20260503225003 63 316 11.3 15.6 0.00 0.00 0.00 57 1011.9
20260503224503 63 317 12.2 15.6 0.00 0.00 0.00 57 1012.0
20260503224005 62 317 11.3 15.6 0.00 0.00 0.00 57 1011.9
20260503223503 63 318 10.4 16.5 0.00 0.00 0.00 56 1011.9
20260503223004 63 320 10.4 15.6 0.00 0.00 0.00 58 1012.0
20260503222503 62 319 11.3 15.6 0.00 0.00 0.00 59 1011.9
20260503222005 62 319 11.3 17.4 0.00 0.00 0.00 58 1012.0
20260503221503 62 320 10.4 19.1 0.00 0.00 0.00 57 1012.0
20260503221003 62 316 8.7 14.8 0.00 0.00 0.00 58 1012.1
20260503220504 62 307 10.4 13.9 0.00 0.00 0.00 58 1012.1
20260503220003 63 316 10.4 17.4 0.00 0.00 0.00 58 1012.2
20260503215504 62 317 10.4 17.4 0.00 0.00 0.00 59 1012.1
20260503215003 62 315 11.3 13.9 0.00 0.00 0.00 58 1012.2
20260503214503 62 319 11.3 16.5 0.00 0.00 0.00 59 1012.2
20260503214004 63 314 12.2 13.0 0.00 0.00 0.00 58 1012.1
20260503213503 62 315 13.0 20.9 0.00 0.00 0.00 59 1012.0
20260503213003 62 317 12.2 18.2 0.00 0.00 0.00 58 1012.1
20260503212505 63 313 13.0 15.6 0.00 0.00 0.00 57 1012.0
20260503212005 63 318 12.2 19.1 0.00 0.00 0.00 57 1012.1
20260503211006 64 319 10.4 18.2 0.00 0.00 0.00 56 1011.9
20260503210507 64 319 12.2 11.3 0.00 0.00 0.00 57 1011.9
20260503210006 63 317 13.0 16.5 0.00 0.00 0.00 56 1012.1
20260503205506 64 316 12.2 13.9 0.00 0.00 0.00 56 1012.2
20260503205006 64 314 10.4 18.2 0.00 0.00 0.00 57 1012.1
20260503204006 65 320 10.4 15.6 0.00 0.00 0.00 54 1012.2
20260503203505 64 320 8.7 15.6 0.00 0.00 0.00 54 1012.3
20260503203005 64 309 7.8 13.9 0.00 0.00 0.00 56 1012.3
20260503202006 64 317 8.7 15.6 0.00 0.00 0.00 54 1012.2
20260503201506 65 323 9.6 14.8 0.00 0.00 0.00 53 1012.3
20260503200506 65 319 9.6 13.0 0.00 0.00 0.00 51 1012.4
20260503200006 66 319 8.7 14.8 0.00 0.00 0.00 49 1012.8
20260503195006 65 317 7.0 13.9 0.00 0.00 0.00 50 1012.7
20260503194505 65 312 4.3 12.2 0.00 0.00 0.00 50 1012.9
20260503194006 64 322 3.5 13.0 0.00 0.00 0.00 51 1013.0
20260503193506 64 324 3.5 7.0 0.00 0.00 0.00 50 1013.0
20260503193007 64 289 3.5 7.8 0.00 0.00 0.00 51 1013.1
20260503192506 65 329 4.3 7.0 0.00 0.00 0.00 50 1013.1
20260503192006 65 305 4.3 7.8 0.00 0.00 0.00 50 1013.1
20260503191505 65 286 6.1 8.7 0.00 0.00 0.00 51 1013.2
20260503191006 64 318 7.0 11.3 0.00 0.00 0.00 53 1013.1
20260503190506 64 319 7.8 12.2 0.00 0.00 0.00 53 1013.3
20260503190007 65 313 7.0 10.4 0.00 0.00 0.00 51 1013.2
20260503185506 64 315 7.0 11.3 0.00 0.00 0.00 50 1013.2
20260503184007 63 319 8.7 11.3 0.00 0.00 0.00 56 1013.3
20260503183505 62 318 7.8 13.9 0.00 0.00 0.00 56 1013.3
20260503183006 62 321 9.6 11.3 0.00 0.00 0.00 58 1013.3
20260503182506 61 312 9.6 12.2 0.00 0.00 0.00 59 1013.4
20260503182006 61 317 10.4 13.0 0.00 0.00 0.00 61 1013.5
20260503181506 60 316 10.4 13.0 0.00 0.00 0.00 61 1013.6
20260503181006 60 318 10.4 15.6 0.00 0.00 0.00 64 1013.5
20260503180505 58 314 10.4 13.9 0.00 0.00 0.00 65 1013.6
20260503180006 59 322 8.7 15.6 0.00 0.00 0.00 65 1013.7
20260503175006 58 320 11.3 15.6 0.00 0.00 0.00 64 1013.5
20260503174506 59 320 10.4 17.4 0.00 0.00 0.00 64 1013.4
20260503174006 59 320 11.3 15.6 0.00 0.00 0.00 64 1013.5
20260503173506 59 314 10.4 16.5 0.00 0.00 0.00 64 1013.3
20260503173502 59 313 11.3 11.3 0.00 0.00 0.00 64 1013.3
20260503173006 59 318 10.4 18.2 0.00 0.00 0.00 63 1013.3
20260503171006 64 329 6.1 11.3 0.00 0.00 0.00 49 1013.2
20260503170507 69 323 7.0 11.3 0.00 0.00 0.00 38 1013.2
20260503151002 65 85 6.1 13.0 0.00 0.00 0.00 27 1012.9
20260503131002 47 152 3.5 6.1 0.00 0.00 0.00 52 1012.6
20260503130503 47 151 3.5 6.1 0.00 0.00 0.00 52 1012.7
20260503110503 48 0 0.0 0.0 0.00 0.00 0.00 50 1013.3
20260503090503 55 161 0.9 4.3 0.00 0.00 0.00 38 1014.0
20260503081503 58 168 1.7 4.3 0.00 0.00 0.00 34 1014.1
20260503081003 58 100 1.7 2.6 0.00 0.00 0.00 34 1014.0
20260503080502 59 94 2.6 2.6 0.00 0.00 0.00 33 1014.3
20260503072503 65 201 2.6 5.2 0.00 0.00 0.00 25 1014.3
20260503072002 64 243 3.5 6.1 0.00 0.00 0.00 25 1014.3
20260503071504 64 238 3.5 4.3 0.00 0.00 0.00 26 1014.1
20260503071003 64 249 1.7 6.1 0.00 0.00 0.00 26 1014.0
20260503055004 66 278 5.2 10.4 0.00 0.00 0.00 25 1014.0
20260503054502 66 310 3.5 8.7 0.00 0.00 0.00 25 1014.0
20260503054003 66 311 2.6 7.0 0.00 0.00 0.00 26 1014.2
20260503053003 65 286 4.3 7.8 0.00 0.00 0.00 27 1014.2
20260503052503 65 304 5.2 5.2 0.00 0.00 0.00 27 1014.2
20260503052003 66 272 5.2 8.7 0.00 0.00 0.00 27 1014.2
20260503051003 66 250 4.3 7.0 0.00 0.00 0.00 26 1014.2
20260503050504 65 234 5.2 7.8 0.00 0.00 0.00 26 1014.2
20260503050004 64 210 6.1 8.7 0.00 0.00 0.00 27 1014.2
20260503045503 64 210 3.5 11.3 0.00 0.00 0.00 28 1014.2
20260503045003 64 216 0.0 10.4 0.00 0.00 0.00 28 1014.3
20260503044503 64 31 0.0 1.7 0.00 0.00 0.00 28 1014.2
20260503044003 64 0 0.9 0.0 0.00 0.00 0.00 28 1014.3
20260503043003 66 124 1.7 2.6 0.00 0.00 0.00 27 1014.0
20260503042003 66 160 1.7 3.5 0.00 0.00 0.00 25 1013.8
20260503041503 66 195 1.7 5.2 0.00 0.00 0.00 26 1013.7
20260503040503 66 186 1.7 5.2 0.00 0.00 0.00 26 1013.7
20260503040005 66 127 2.6 2.6 0.00 0.00 0.00 27 1013.6
20260503035503 66 153 3.5 7.0 0.00 0.00 0.00 26 1013.5
20260503035003 66 181 3.5 7.8 0.00 0.00 0.00 26 1013.5
20260503034504 66 154 3.5 7.0 0.00 0.00 0.00 26 1013.3
20260503034003 66 185 3.5 5.2 0.00 0.00 0.00 27 1013.2
20260503033004 67 172 5.2 10.4 0.00 0.00 0.00 26 1013.1
20260503032503 68 175 6.1 9.6 0.00 0.00 0.00 26 1013.0
20260503032003 68 181 6.1 10.4 0.00 0.00 0.00 26 1013.1
20260503031504 68 174 5.2 13.0 0.00 0.00 0.00 26 1013.1
20260503031004 68 163 5.2 11.3 0.00 0.00 0.00 26 1013.1
20260503030504 69 167 6.1 9.6 0.00 0.00 0.00 26 1013.1